Change the Weather History Date:

Thursday, December 6, 2012

  Actual Average (KHCD) Record (KHCD)
Temperature  
Mean Temperature 35 °F -  
Max Temperature 45 °F 29 °F 49 °F (1963)
Min Temperature 23 °F 9 °F -18 °F (1972)
Degree Days  
Heating Degree Days 30    
Moisture  
Dew Point 29 °F    
Average Humidity 68    
Maximum Humidity 82    
Minimum Humidity 56    
Precipitation  
Precipitation 0.00 in - - ()
Sea Level Pressure  
Sea Level Pressure 29.86 in    
Wind  
Wind Speed 12 mph (West)    
Max Wind Speed 20 mph    
Max Gust Speed 25 mph    
Visibility 10 miles    
Events Rain    
Averages and records for this station are not official NWS values.
T = Trace of Precipitation, MM = Missing Value Source: NWS Daily Summary

Daily Weather History Graph

Daily Weather History Graph

Search for Another Location

Airport or City:

Trip Planner

Search our weather history database for the weather conditions in past years. The results will help you decide how hot, cold, wet, or windy it might be!

Date:

Astronomy

Dec. 06, 2012 Rise Set
Actual Time 7:39 AM CST 4:35 PM CST
Civil Twilight 7:06 AM CST 5:09 PM CST
Nautical Twilight 6:29 AM CST 5:45 PM CST
Astronomical Twilight 5:54 AM CST 6:21 PM CST
Moon No Moon Rise 12:17 PM CST (12/6)
Length of Visible Light 10h 02m
Length of Day
8h 56m
Waning Gibbous, 49% of the Moon is Illuminated
Dec 6
Waning Gibbous
Dec 13
New
Dec 19
First Quarter
Dec 28
Full
Jan 4
Last Quarter

Hourly Weather History & Observations

Time (CST) Temp. Windchill Dew Point Humidity Pressure Visibility Wind Dir Wind Speed Gust Speed Precip Events Conditions
12:15 AM 43.7 °F 36.9 °F 29.7 °F 58% 29.79 in 10.0 mi South 13.8 mph 24.2 mph N/A   Scattered Clouds
12:36 AM 44.4 °F 38.2 °F 30.2 °F 57% 29.79 in 10.0 mi South 12.7 mph 21.9 mph N/A   Mostly Cloudy
12:55 AM 44.6 °F 38.1 °F 30.7 °F 58% 29.79 in 10.0 mi South 13.8 mph 21.9 mph N/A   Mostly Cloudy
1:16 AM 44.8 °F 39.0 °F 31.1 °F 59% 29.79 in 10.0 mi South 11.5 mph 24.2 mph N/A   Scattered Clouds
1:36 AM 44.6 °F 38.4 °F 31.1 °F 59% 29.78 in 10.0 mi South 12.7 mph 18.4 mph N/A   Scattered Clouds
1:55 AM 44.6 °F 40.2 °F 31.5 °F 60% 29.77 in 10.0 mi South 8.1 mph 18.4 mph N/A   Scattered Clouds
2:16 AM 45.0 °F 38.9 °F 31.6 °F 60% 29.77 in 10.0 mi South 12.7 mph 21.9 mph N/A   Mostly Cloudy
2:36 AM 45.5 °F 39.9 °F 31.8 °F 59% 29.77 in 10.0 mi South 11.5 mph 21.9 mph N/A   Mostly Cloudy
2:56 AM 45.5 °F 38.9 °F 32.0 °F 59% 29.77 in 10.0 mi South 15.0 mph 21.9 mph N/A   Mostly Cloudy
3:16 AM 45.7 °F 39.5 °F 32.2 °F 59% 29.76 in 10.0 mi South 13.8 mph 25.3 mph N/A   Overcast
3:36 AM 44.8 °F 38.0 °F 34.2 °F 66% 29.76 in 10.0 mi South 15.0 mph 20.7 mph N/A   Light Drizzle
3:55 AM 43.5 °F 36.7 °F 35.2 °F 73% 29.76 in 10.0 mi South 13.8 mph 19.6 mph N/A Rain Rain
4:16 AM 43.3 °F 37.2 °F 35.6 °F 74% 29.76 in 10.0 mi South 11.5 mph 19.6 mph N/A   Overcast
4:35 AM 43.2 °F 37.4 °F 35.4 °F 74% 29.76 in 10.0 mi South 10.4 mph 17.3 mph N/A   Overcast
4:56 AM 43.0 °F 37.7 °F 35.2 °F 74% 29.77 in 10.0 mi South 9.2 mph - N/A   Light Drizzle
5:15 AM 42.8 °F 37.5 °F 35.1 °F 74% 29.77 in 10.0 mi South 9.2 mph - N/A   Scattered Clouds
5:36 AM 42.8 °F 38.0 °F 35.1 °F 74% 29.76 in 10.0 mi South 8.1 mph - N/A   Scattered Clouds
5:56 AM 42.3 °F 36.8 °F 35.6 °F 77% 29.77 in 10.0 mi South 9.2 mph - N/A   Light Drizzle
6:16 AM 42.1 °F 36.6 °F 35.8 °F 78% 29.77 in 10.0 mi SSW 9.2 mph 16.1 mph N/A Rain Light Rain
6:36 AM 42.1 °F 35.2 °F 36.0 °F 79% 29.77 in 10.0 mi South 12.7 mph 16.1 mph N/A   Mostly Cloudy
6:56 AM 41.9 °F 36.9 °F 36.0 °F 79% 29.76 in 10.0 mi South 8.1 mph - N/A   Scattered Clouds
7:16 AM 41.4 °F 38.4 °F 35.8 °F 81% 29.77 in 10.0 mi SSW 4.6 mph - N/A   Clear
7:35 AM 41.4 °F 37.6 °F 35.2 °F 79% 29.78 in 10.0 mi SSW 5.8 mph - N/A   Scattered Clouds
7:56 AM 41.0 °F 35.8 °F 33.8 °F 76% 29.79 in 10.0 mi WSW 8.1 mph - N/A   Scattered Clouds
8:16 AM 41.0 °F 33.5 °F 31.8 °F 70% 29.80 in 10.0 mi West 13.8 mph 19.6 mph N/A   Clear
8:36 AM 40.5 °F 35.1 °F 31.1 °F 69% 29.81 in 10.0 mi West 8.1 mph 17.3 mph N/A   Clear
8:55 AM 40.1 °F 34.7 °F 31.3 °F 71% 29.82 in 10.0 mi West 8.1 mph - N/A   Clear
9:16 AM 39.2 °F 32.5 °F 31.1 °F 73% 29.83 in 10.0 mi West 10.4 mph - N/A   Clear
9:35 AM 38.7 °F 30.9 °F 30.7 °F 73% 29.84 in 10.0 mi WNW 12.7 mph 18.4 mph N/A   Clear
9:56 AM 39.4 °F 31.4 °F 31.1 °F 72% 29.84 in 10.0 mi West 13.8 mph - N/A   Clear
10:16 AM 39.6 °F 31.3 °F 31.1 °F 72% 29.85 in 10.0 mi West 15.0 mph 21.9 mph N/A   Clear
10:36 AM 40.3 °F 31.0 °F 31.1 °F 70% 29.86 in 10.0 mi West 19.6 mph 25.3 mph N/A   Clear
10:56 AM 40.1 °F 31.0 °F 31.1 °F 70% 29.86 in 10.0 mi West 18.4 mph 25.3 mph N/A   Clear
11:16 AM 40.6 °F 31.7 °F 31.1 °F 69% 29.86 in 10.0 mi West 18.4 mph - N/A   Clear
11:36 AM 40.3 °F 31.6 °F 30.6 °F 68% 29.86 in 10.0 mi West 17.3 mph 21.9 mph N/A   Scattered Clouds
11:56 AM 39.9 °F 32.5 °F 30.2 °F 68% 29.85 in 10.0 mi WNW 12.7 mph - N/A   Scattered Clouds
12:16 PM 41.7 °F 34.4 °F 30.2 °F 64% 29.85 in 10.0 mi WNW 13.8 mph 23.0 mph N/A   Clear
12:36 PM 42.3 °F 34.8 °F 30.0 °F 62% 29.85 in 10.0 mi NW 15.0 mph 20.7 mph N/A   Clear
12:56 PM 42.3 °F 35.1 °F 29.3 °F 60% 29.85 in 10.0 mi WNW 13.8 mph - N/A   Clear
1:16 PM 41.5 °F 33.5 °F 28.4 °F 60% 29.86 in 10.0 mi WNW 16.1 mph - N/A   Clear
1:36 PM 42.3 °F 35.1 °F 28.0 °F 57% 29.86 in 10.0 mi NW 13.8 mph 20.7 mph N/A   Clear
1:56 PM 42.6 °F 35.9 °F 28.4 °F 57% 29.87 in 10.0 mi West 12.7 mph 17.3 mph N/A   Clear
2:15 PM 42.4 °F 35.3 °F 27.5 °F 56% 29.87 in 10.0 mi WNW 13.8 mph - N/A   Clear
2:36 PM 42.3 °F 35.1 °F 27.3 °F 56% 29.87 in 10.0 mi West 13.8 mph - N/A   Clear
2:56 PM 40.8 °F 32.9 °F 26.6 °F 57% 29.88 in 10.0 mi West 15.0 mph 20.7 mph N/A   Clear
3:15 PM 39.7 °F 31.2 °F 26.2 °F 59% 29.89 in 10.0 mi West 16.1 mph 20.7 mph N/A   Clear
3:36 PM 39.2 °F 30.2 °F 26.1 °F 59% 29.89 in 10.0 mi West 17.3 mph 21.9 mph N/A   Clear
3:56 PM 38.7 °F 30.5 °F 26.1 °F 61% 29.90 in 10.0 mi West 13.8 mph 23.0 mph N/A   Clear
4:16 PM 38.1 °F 29.1 °F 25.7 °F 61% 29.90 in 10.0 mi West 16.1 mph 20.7 mph N/A   Clear
4:36 PM 37.6 °F 30.0 °F 25.9 °F 63% 29.92 in 10.0 mi West 11.5 mph 19.6 mph N/A   Clear
4:55 PM 37.4 °F 28.9 °F 25.9 °F 63% 29.92 in 10.0 mi West 13.8 mph 17.3 mph N/A   Clear
5:16 PM 36.7 °F 27.2 °F 25.5 °F 64% 29.92 in 10.0 mi WNW 16.1 mph 19.6 mph N/A   Clear
5:35 PM 36.0 °F 27.1 °F 25.3 °F 65% 29.93 in 10.0 mi WNW 13.8 mph - N/A   Clear
5:56 PM 35.6 °F 26.2 °F 24.8 °F 65% 29.94 in 10.0 mi WNW 15.0 mph 19.6 mph N/A   Clear
6:16 PM 34.9 °F 25.7 °F 24.6 °F 66% 29.94 in 10.0 mi WNW 13.8 mph - N/A   Clear
6:36 PM 34.7 °F 25.9 °F 24.3 °F 66% 29.95 in 10.0 mi WNW 12.7 mph 18.4 mph N/A   Clear
6:56 PM 33.8 °F 26.4 °F 23.9 °F 67% 29.95 in 10.0 mi WNW 9.2 mph - N/A   Clear
7:15 PM 33.4 °F 25.9 °F 23.9 °F 68% 29.95 in 10.0 mi NW 9.2 mph - N/A   Clear
7:36 PM 32.9 °F 24.7 °F 23.5 °F 68% 29.96 in 10.0 mi NW 10.4 mph 17.3 mph N/A   Clear
7:56 PM 32.0 °F 23.6 °F 23.0 °F 69% 29.97 in 10.0 mi NW 10.4 mph - N/A   Clear
8:35 PM 31.8 °F 23.9 °F 22.5 °F 68% 29.97 in 10.0 mi NW 9.2 mph 17.3 mph N/A   Clear
8:56 PM 30.9 °F 22.2 °F 21.6 °F 68% 29.98 in 10.0 mi NNW 10.4 mph - N/A   Clear
9:16 PM 29.8 °F 21.5 °F 21.2 °F 70% 29.98 in 10.0 mi NW 9.2 mph - N/A   Clear
9:35 PM 28.8 °F 20.9 °F 21.0 °F 73% 29.99 in 10.0 mi NW 8.1 mph - N/A   Clear
9:56 PM 28.2 °F 22.0 °F 20.7 °F 73% 29.99 in 10.0 mi NW 5.8 mph - N/A   Clear
10:16 PM 27.3 °F 23.4 °F 20.3 °F 75% 30.00 in 10.0 mi NW 3.5 mph - N/A   Clear
10:35 PM 27.1 °F 23.2 °F 20.3 °F 75% 30.00 in 10.0 mi NW 3.5 mph - N/A   Clear
10:56 PM 27.0 °F - 20.3 °F 76% 29.99 in 10.0 mi Calm Calm - N/A   Clear
11:16 PM 26.2 °F - 20.3 °F 78% 29.99 in 10.0 mi Calm Calm - N/A   Clear
11:35 PM 25.3 °F - 20.1 °F 81% 29.99 in 10.0 mi Calm Calm - N/A   Clear
11:56 PM 23.4 °F - 18.5 °F 82% 30.00 in 10.0 mi Calm Calm - N/A   Clear